Zurück zum Katalog

ONEWEB-0424

AktivKommunikationPO
NORAD 50497·PAYLOAD·🇬🇧 United Kingdom

Gestartet Dec 27, 2021 von Baikonur Cosmodrome

Loading…

Nächste Überflüge (nächste 24 Stunden)

TLE

AktuellSource: CelesTrak SupGP

Epoche: Sep 14, 2026, 19:42 UTC

1 50497C 21132AE  26257.82101111 -.00002833  00000+0 -71951-2 0  2570
2 50497  87.9164 317.6490 0001619 103.4282 295.5904 13.18687769    10

Verfolge ONEWEB-0424 in Echtzeit mit AllMySat

Download on the App Store